Location: Buckland
(65.9785°N, 161.1281°W)
Time: 14:28:53
(UTC+00:00)

PRISM - Pass Details

Date: 23 January 2021
Orbit: 565 x 584 km, 98.2° (Epoch: 04 March)

Event Time Altitude Azimuth Distance (km) Brightness Sun altitude
Rises 14:49:35 0° 21° (NNE) 2,788 ? -30.3°
Reaches altitude 10° 14:51:45 10° 17° (NNE) 1,889 ? -30.0°
Enters shadow 14:52:53 18° 13° (NNE) 1,438 ? -29.9°
